Probability
0 0 0 0 0 0 0 0 0 0 0 0 0 0 0 0 0 0 0 0 0 0 0 0 0 0 0 0 0 0 0 0 0 0 0 0 0 0 0 0 0 0 0
0 0 0 0 0 0 0 0 0 0 0 0 0 0 0 0 0 0 0 0 0 0 0 0 0 0 0 0 0 0 0 0 0 0 0 0 0 0 0 0 0 0 0
0 0 0 0 0 0 0 0 0 0 0 0 0 0 0 0 0 0 0 0 0 0 0 0 0 0 0 0 0 0 0 0 0 0 0 0 0 0 0 0 0 0 0
0 0 0 0 0 0 0 0 0 0 0 0 0 0 0 0 0 0 0 0 0 0 0 0 0 0 0 0 0 0 0 0 0 0 0 0 0 0 0 0 0 0 0
0 0 0 0 0 0 0 0 0 0 0 0 0 0 0 0 0 0 0 0 0 0 0 0 0 0 0 0 0 0 0 0 0 0 0 0 0 0 0 0 0 0 0
0 0 0 0 0 0 0 0 0 0 0 0 0 0 0 0 0 0 0 0 0 0 0 0 0 0 0 0 0 0 0 0 0 0 0 0 0 0 0 0 0 0 0
0 0 0 0 0 0 0 0 0 0 0 0 0 0 0 0 0 0 0 0 0 0 0 0 0 0 0 0 0 0 0 0 0 0 0 0 0 0 0 0 0 0 0
0 0 0 0 0 0 0 0 0 0 0 0 0 0 0 0 0 0 0 0 0 0 0 0 0 0 0 0 0 0 0 0 0 0 0 0 0 0 0 0 0 0 0
0 0 0 0 0 0 0 0 0 0 0 0 0 0 0 0 0 0 0 0 0 0 0 0 0 0 0 0 0 0 0 0 0 0 0 0 0 0 0 0 0 0 0
0 0 0 0 0 0 0 0 0 0 0 0 0 0 0 0 0 0 0 0 0 0 0 0 0 0 0 0 0 0 0 0 0 0 0 0 0 0 0 0 0 0 0
0 0 0 0 0 0 0 0 0 0 0 0 0 0 0 0 0 0 0 0 0 0 0 0 0 0 0 0 0 0 0 0 0 0 0 0 0 0 0 0 0 0 0
0 0 0 0 0 0 0 0 0 0 0 0 0 0 0 0 0 0 0 0 0 0 0 0 0 0 0 0 0 0 0 0 0 0 0 0 0 0 0 0 0 0 0
0 0 0 0 0 0 0 0 0 0 0 0 0 0 0 0 0 0 0 0 0 0 0 0 0 0 0 0 0 0 0 0 0 0 0 0 0 0 0 0 0 0 0
0 0 0 0 0 0 0 0 0 0 0 0 0 0 0 0 0 0 0 0 0 0 0 0 0 0 0 0 0 0 0 0 0 0 0 0 0 0 0 0 0 0 0
0 0 0 0 0 0 0 0 0 0 0 0 0 0 0 0 0 0 0 0 0 0 0 0 0 0 0 0 0 0 0 0 0 0 0 0 0 0 0 0 0 0 0
0 0 0 0 0 0 0 0 0 0 0 0 0 0 0 0 0 0 0 0 0 0 0 0 0 0 0 0 0 0 0 0 0 0 0 0 0 0 0 0 0 0 0
0 0 0 0 0 0 0 0 0 0 0 0 0 0 0 0 0 0 0 0 0 0 0 0 0 0 0 0 0 0 0 0 0 0 0 0 0 0 0 0 0 0 0
0 0 0 0 0 0 0 0 0 0 0 0 0 0 0 0 0 0 0 0 0 0 0 0 0 0 0 0 0 0 0 0 0 0 0 0 0 0 0 0 0 0 0
0 0 0 0 0 0 0 0 0 0 0 0 0 0 0 0 0 0 0 0 0 0 0 0 0 0 0 0 0 0 0 0 0 0 0 0 0 0 0 0 0 0 0
0 0 0 0 0 0 0 0 0 0 0 0 0 0 0 0 0 0 0 0 0 0 0 0 0 0 0 0 0 0 0 0 0 0 0 0 0 0 0 0 0 0 0
0 0 0 0 0 0 0 0 0 0 0 0 0 0 0 0 0 0 0 0 0 0 0 0 0 0 0 0 0 0 0 0 0 0 0 0 0 0 0 0 0 0 0
0 0 0 0 0 0 0 0 0 0 0 0 0 0 0 0 0 0 0 0 0 0 0 0 0 0 0 0 0 0 0 0 0 0 0 0 0 0 0 0 0 0 0
0 0 0 0 0 0 0 0 0 0 0 0 0 0 0 0 0 0 0 0 0 0 0 0 0 0 0 0 0 0 0 0 0 0 0 0 0 0 0 0 0 0 0
0 0 0 0 0 0 0 0 0 0 0 0 0 0 0 0 0 0 0 0 0 0 0 0 0 0 0 0 0 0 0 0 0 0 0 0 0 0 0 0 0 0 0
0 0 0 0 0 0 0 0 0 0 0 0 0 0 0 0 0 0 0 0 0 0 0 0 0 0 0 0 0 0 0 0 0 0 0 0 0 0 0 0 0 0 0
0 0 0 0 0 0 0 0 0 0 0 0 0 0 0 0 0 0 0 0 0 0 0 0 0 0 0 0 0 0 0 0 0 0 0 0 0 0 0 0 0 0 0
Height
5518 5503 5488 5474 5459 5444 5427 5408 5389 5367 5345 5325 5309 5297 5291 5288 5290 5293 5298 5304 5310 5314 5319 5324 5330 5339 5349 5362 5376 5391 5406 5419 5432 5441 5453 5470 5490 5512 5529 5545 5561 5576 5590
5513 5497 5482 5467 5452 5436 5418 5397 5375 5351 5327 5307 5291 5280 5274 5273 5276 5280 5285 5292 5298 5303 5308 5313 5320 5328 5338 5350 5363 5379 5394 5409 5421 5429 5439 5455 5475 5496 5514 5531 5547 5562 5577
5509 5492 5477 5462 5446 5429 5410 5388 5364 5339 5316 5297 5284 5276 5272 5270 5271 5274 5278 5283 5290 5295 5300 5305 5311 5320 5330 5341 5353 5368 5383 5398 5410 5419 5428 5442 5462 5483 5501 5517 5533 5548 5563
5505 5488 5473 5457 5441 5423 5403 5380 5356 5332 5310 5295 5285 5279 5276 5274 5273 5275 5277 5280 5285 5289 5294 5299 5305 5313 5323 5333 5345 5358 5373 5387 5399 5410 5419 5431 5449 5468 5487 5504 5519 5534 5549
5502 5485 5470 5453 5437 5419 5399 5377 5352 5329 5309 5296 5288 5284 5281 5279 5277 5277 5278 5279 5282 5286 5290 5295 5301 5309 5318 5328 5339 5351 5364 5377 5389 5399 5408 5420 5435 5455 5474 5490 5506 5520 5535
5499 5483 5467 5451 5435 5417 5398 5376 5352 5331 5312 5300 5292 5288 5285 5282 5280 5280 5280 5280 5282 5285 5289 5294 5299 5306 5315 5324 5334 5345 5357 5368 5379 5388 5397 5408 5422 5441 5460 5476 5491 5506 5522
5498 5483 5467 5450 5434 5417 5398 5377 5356 5335 5317 5304 5296 5291 5288 5285 5284 5283 5283 5283 5283 5285 5289 5293 5298 5305 5313 5322 5331 5341 5351 5361 5371 5379 5388 5397 5409 5427 5447 5464 5477 5492 5508
5498 5483 5467 5451 5436 5419 5401 5382 5362 5341 5323 5309 5300 5295 5292 5289 5287 5286 5285 5285 5285 5286 5289 5293 5299 5305 5312 5320 5329 5338 5347 5356 5364 5373 5380 5389 5399 5415 5433 5449 5464 5479 5494
5500 5485 5469 5454 5438 5422 5406 5388 5369 5350 5332 5316 5306 5299 5295 5293 5290 5288 5287 5286 5286 5287 5290 5294 5299 5305 5312 5320 5328 5337 5345 5352 5359 5367 5374 5381 5390 5402 5418 5433 5449 5465 5482
5501 5486 5470 5456 5441 5426 5410 5393 5376 5358 5341 5325 5313 5304 5299 5295 5292 5290 5288 5287 5288 5289 5291 5295 5300 5306 5312 5320 5327 5335 5343 5349 5356 5363 5369 5375 5383 5392 5404 5418 5434 5452 5469
5501 5487 5473 5460 5445 5430 5415 5400 5383 5367 5350 5335 5322 5311 5304 5299 5295 5292 5290 5289 5289 5290 5293 5297 5302 5307 5313 5320 5327 5334 5341 5348 5354 5360 5366 5372 5378 5386 5396 5408 5423 5441 5459
5502 5489 5477 5464 5450 5436 5422 5408 5394 5379 5363 5348 5334 5321 5311 5303 5298 5295 5292 5291 5291 5292 5294 5298 5302 5308 5314 5320 5327 5333 5340 5346 5352 5358 5364 5369 5375 5382 5391 5402 5416 5433 5450
5504 5492 5480 5468 5456 5443 5430 5417 5404 5390 5375 5360 5346 5333 5321 5311 5304 5299 5295 5293 5293 5293 5295 5298 5303 5308 5314 5321 5327 5333 5339 5345 5351 5357 5362 5368 5374 5380 5388 5398 5412 5427 5444
5507 5496 5484 5473 5461 5449 5437 5424 5412 5400 5386 5372 5358 5345 5333 5322 5312 5305 5300 5297 5296 5295 5297 5299 5303 5308 5314 5320 5327 5333 5339 5344 5350 5356 5362 5368 5374 5380 5387 5396 5408 5422 5437
5510 5499 5488 5477 5465 5454 5443 5431 5418 5406 5394 5382 5369 5356 5344 5333 5322 5313 5306 5302 5299 5298 5298 5300 5303 5308 5314 5320 5326 5332 5337 5343 5349 5355 5361 5367 5373 5380 5386 5394 5404 5416 5431
5513 5502 5492 5482 5470 5459 5447 5435 5424 5413 5402 5390 5378 5366 5355 5343 5333 5324 5315 5307 5303 5301 5301 5301 5303 5307 5312 5318 5324 5330 5336 5342 5348 5354 5360 5366 5373 5379 5385 5392 5401 5412 5425
5516 5505 5495 5485 5475 5465 5454 5443 5432 5421 5409 5399 5388 5377 5366 5355 5345 5335 5326 5317 5310 5306 5304 5303 5304 5306 5311 5316 5322 5329 5335 5340 5346 5352 5359 5365 5371 5378 5384 5391 5399 5409 5420
5517 5507 5498 5489 5479 5469 5458 5448 5439 5428 5418 5408 5397 5387 5377 5366 5356 5346 5337 5328 5320 5313 5308 5306 5306 5307 5309 5314 5320 5326 5332 5339 5345 5351 5357 5363 5370 5376 5383 5389 5397 5405 5416
5519 5509 5500 5491 5482 5473 5463 5453 5444 5435 5425 5415 5405 5395 5386 5376 5367 5357 5348 5339 5331 5323 5316 5311 5309 5308 5309 5312 5317 5323 5329 5336 5342 5348 5354 5361 5367 5374 5381 5388 5395 5402 5412
5521 5512 5503 5494 5485 5477 5467 5458 5449 5440 5431 5422 5413 5404 5395 5386 5376 5367 5358 5350 5341 5334 5326 5319 5314 5311 5311 5312 5315 5319 5325 5332 5339 5345 5352 5358 5365 5371 5378 5386 5393 5400 5408
5522 5513 5504 5496 5488 5480 5472 5463 5454 5445 5436 5427 5419 5410 5401 5392 5384 5376 5367 5359 5351 5343 5336 5329 5323 5318 5314 5313 5314 5317 5322 5328 5334 5341 5348 5354 5361 5368 5375 5382 5389 5397 5405
5523 5514 5506 5498 5491 5483 5475 5466 5457 5449 5441 5432 5424 5415 5407 5399 5391 5383 5375 5367 5359 5352 5345 5338 5332 5327 5321 5317 5316 5317 5319 5324 5329 5336 5343 5349 5356 5363 5370 5377 5385 5392 5400
5523 5515 5507 5499 5492 5484 5477 5469 5461 5453 5445 5437 5429 5421 5413 5405 5397 5389 5381 5374 5367 5359 5352 5346 5340 5335 5329 5325 5321 5318 5319 5321 5325 5330 5336 5343 5350 5357 5364 5371 5378 5386 5394
5523 5515 5507 5500 5493 5486 5479 5472 5464 5457 5449 5441 5433 5425 5417 5409 5402 5394 5387 5379 5372 5365 5359 5352 5346 5341 5336 5331 5327 5323 5321 5320 5321 5324 5329 5336 5342 5349 5356 5363 5370 5378 5385
5523 5515 5508 5500 5493 5486 5479 5473 5466 5459 5451 5444 5436 5428 5420 5413 5406 5399 5391 5384 5377 5370 5363 5357 5351 5345 5340 5336 5332 5328 5325 5322 5320 5320 5323 5328 5333 5340 5346 5354 5361 5368 5376
5523 5515 5508 5500 5493 5486 5479 5473 5466 5460 5453 5445 5438 5430 5423 5416 5409 5402 5395 5388 5381 5374 5367 5361 5355 5349 5343 5339 5335 5331 5327 5324 5321 5319 5318 5320 5324 5329 5335 5342 5349 5357 5365
Wind_Speed
67 64 61 59 62 65 68 71 72 74 73 67 59 50 43 39 39 38 39 36 33 33 35 37 42 47 53 61 68 71 68 62 60 67 82 97 100 97 93 92 89 86 81
66 64 61 61 64 67 70 73 75 76 70 60 48 36 27 20 20 24 29 29 28 29 31 34 38 43 48 55 63 68 68 64 58 59 71 85 96 95 91 90 89 87 85
65 64 62 62 65 68 72 75 77 74 63 49 36 24 18 10 4 9 15 19 22 24 27 30 34 39 44 49 57 63 65 64 59 56 62 74 86 89 86 85 87 88 86
65 64 62 63 66 70 73 76 77 71 57 40 27 22 20 14 7 2 5 10 15 19 23 27 30 35 39 44 51 57 61 61 60 56 57 66 78 83 82 81 83 86 85
65 64 63 64 67 70 74 77 76 69 53 34 21 17 17 16 11 7 2 4 10 15 19 24 27 31 35 39 45 51 55 56 57 56 56 63 74 81 81 79 79 82 84
64 64 64 65 67 70 74 77 76 68 52 33 18 11 11 12 8 5 2 2 6 11 17 22 25 29 32 35 40 45 49 50 52 53 54 61 72 81 82 80 78 80 82
63 64 64 65 67 70 73 76 75 69 55 37 20 9 4 4 3 4 3 1 5 10 16 21 25 28 31 33 36 39 42 43 45 47 51 58 70 84 84 80 78 79 80
62 63 64 64 66 69 72 74 74 71 61 44 28 16 7 4 5 6 6 3 4 10 16 21 25 28 30 32 33 35 36 37 38 40 44 52 66 83 90 83 77 76 77
61 62 63 64 64 67 70 72 73 72 66 53 36 24 16 11 9 8 7 4 4 10 17 22 26 29 30 31 32 32 32 33 34 35 38 45 58 77 93 92 82 76 76
60 61 62 62 63 65 68 71 72 72 69 61 47 32 23 17 12 9 7 4 4 9 16 22 27 29 30 31 30 29 29 29 30 31 34 39 48 65 86 95 91 82 78
59 60 60 60 62 64 66 69 71 71 70 66 58 45 32 23 17 12 8 5 3 8 15 22 26 29 30 30 29 28 27 26 27 28 31 34 41 53 69 84 91 88 81
58 58 58 59 60 61 63 65 67 69 68 67 64 56 44 31 23 17 11 6 2 6 13 20 25 28 29 29 28 27 26 25 25 27 30 33 37 44 53 65 77 84 83
56 56 56 57 58 59 61 62 64 65 66 66 65 62 55 44 31 22 16 9 4 3 10 17 24 27 28 28 28 27 26 25 25 26 28 30 34 39 46 54 63 73 77
53 53 53 54 56 57 59 60 61 62 64 65 65 63 61 55 44 31 22 15 8 3 5 13 21 27 28 28 28 27 27 26 26 26 26 27 30 35 40 48 55 62 68
52 51 51 51 53 56 58 59 59 60 61 62 63 63 62 60 56 46 32 21 14 7 1 8 17 24 28 29 28 28 27 27 26 26 26 27 28 31 35 42 50 56 61
50 49 49 49 50 53 55 57 58 58 58 59 61 62 62 60 59 56 47 34 22 13 6 3 11 20 26 29 29 29 28 28 28 27 28 28 28 29 33 39 46 52 57
48 48 47 47 48 50 52 54 55 56 57 56 57 58 59 59 58 56 54 48 35 22 12 4 4 14 22 28 30 30 29 29 29 28 29 30 29 30 31 36 43 50 55
47 46 46 46 47 48 49 51 52 53 54 54 54 54 56 57 57 55 53 52 48 37 24 13 4 6 16 24 30 32 32 31 30 30 30 31 31 31 32 34 40 47 53
45 45 45 45 45 46 47 49 50 51 52 52 52 52 52 53 54 54 53 51 49 47 38 26 14 3 7 17 26 32 34 33 32 32 32 33 34 33 34 34 37 42 50
44 43 43 44 44 45 45 46 48 49 50 50 50 50 50 50 51 51 51 50 48 47 45 40 28 16 4 7 18 28 34 36 36 34 34 35 36 36 36 36 37 38 43
43 42 42 42 43 44 44 45 46 47 48 49 49 50 49 49 48 48 49 48 47 46 44 42 39 30 18 5 7 19 29 35 38 38 37 37 38 39 39 39 39 39 41
43 42 41 41 41 42 43 44 45 46 46 47 47 48 48 48 47 46 46 46 45 44 42 41 39 37 31 21 8 6 18 29 36 40 41 40 40 40 41 42 43 43 43
43 42 40 40 40 41 42 43 43 44 45 45 45 45 46 46 46 45 44 44 43 42 41 39 37 35 34 31 23 11 4 17 28 36 41 43 43 42 43 44 45 45 46
43 42 40 40 39 39 40 41 41 42 43 44 44 44 44 44 44 44 43 42 41 40 39 38 36 33 32 30 28 23 14 3 16 28 36 42 45 45 45 46 46 47 48
42 42 41 40 39 38 38 39 39 40 41 42 43 42 42 41 41 41 41 41 40 39 38 37 35 33 30 28 26 24 21 15 5 12 26 36 43 46 48 48 49 49 49
42 42 41 41 40 39 37 37 37 38 39 40 41 41 40 39 39 39 39 40 39 38 37 36 34 33 30 27 25 23 21 18 14 7 9 22 34 43 48 50 51 52 52
Wind_Direction
341 341 340 339 339 340 339 337 335 331 327 322 317 309 298 284 273 266 262 258 253 248 242 236 229 223 219 216 215 214 214 215 218 220 220 217 214 214 216 217 218 219 219
343 343 343 343 343 343 343 342 340 337 334 332 329 326 317 298 274 261 256 251 246 242 237 232 227 221 217 215 213 212 213 214 215 218 220 218 215 213 214 216 217 219 218
345 346 346 346 346 347 347 347 346 344 343 344 350 1 9 5 313 255 248 242 237 234 230 227 223 218 215 213 211 211 211 213 214 216 219 217 214 212 211 212 215 218 219
348 349 349 349 349 351 352 352 352 352 353 359 16 39 47 47 36 352 256 236 229 225 222 220 217 214 211 209 209 209 210 212 214 216 218 215 212 209 209 209 211 214 217
350 351 352 352 353 355 357 357 358 359 360 7 30 62 74 63 54 50 49 224 221 216 213 212 210 207 205 205 205 206 208 212 215 217 218 215 211 207 205 206 208 210 213
353 354 355 356 357 359 1 2 3 4 5 8 23 62 93 87 67 43 31 216 210 204 204 203 202 198 197 198 200 203 206 210 214 217 218 215 210 206 202 201 204 206 209
356 357 358 359 360 2 4 6 7 8 9 9 13 29 80 93 37 360 352 271 203 196 197 196 194 191 191 193 194 197 202 207 213 217 218 216 210 206 200 197 199 203 206
357 359 1 1 2 5 7 9 11 13 14 14 14 13 6 347 342 340 338 302 211 194 192 191 189 187 187 189 191 194 199 204 209 214 217 216 211 206 201 196 195 198 203
358 1 3 3 5 7 9 11 14 16 17 18 18 17 12 3 354 348 333 303 224 198 192 189 186 185 186 187 189 191 195 201 206 211 214 214 212 207 205 201 195 195 198
360 3 5 5 7 9 11 13 16 18 20 22 22 20 18 15 12 4 349 324 243 205 195 190 187 186 187 188 189 190 194 199 205 209 211 210 209 208 208 207 204 200 199
1 5 7 7 9 11 13 15 17 19 22 23 24 24 22 19 17 13 4 342 257 209 199 193 190 189 189 190 190 191 193 197 202 204 205 205 205 205 208 210 211 207 204
3 6 8 10 11 13 15 16 18 20 23 25 26 27 26 23 20 17 12 0 304 218 203 197 195 194 193 192 192 192 192 194 196 198 199 200 200 201 203 207 211 211 209
4 6 9 11 13 15 16 17 19 20 23 25 27 28 29 28 25 21 18 13 357 243 210 202 199 198 197 195 195 194 193 192 192 194 195 197 198 198 198 200 205 209 210
4 7 9 12 14 16 16 17 19 20 22 25 27 29 30 31 30 27 22 19 14 346 222 209 204 202 201 199 198 196 195 192 191 191 193 193 194 195 196 195 197 201 205
5 7 10 12 13 15 17 18 18 19 21 24 27 29 30 31 32 31 28 23 18 12 288 215 209 206 205 204 201 199 196 194 191 190 190 189 190 192 194 193 192 195 198
5 8 10 12 14 15 16 17 18 19 21 22 25 27 29 30 32 32 31 30 26 21 14 231 212 210 208 207 205 202 199 196 194 192 190 189 188 189 192 193 191 192 193
5 8 10 12 14 15 17 17 17 18 20 22 24 26 28 29 31 32 33 32 31 29 23 14 218 212 211 210 208 206 203 199 196 194 192 191 190 189 190 192 192 192 192
5 8 10 12 13 15 16 17 18 18 19 21 22 25 26 28 29 31 32 33 33 33 31 27 16 216 212 211 210 209 207 203 200 197 194 192 190 189 188 189 192 193 193
3 7 10 11 12 14 15 16 17 18 19 20 22 23 25 27 28 30 31 32 33 34 33 32 30 19 217 212 212 211 210 208 205 201 198 195 193 191 190 189 189 193 195
1 5 8 10 11 12 14 15 16 17 18 20 21 22 24 25 27 28 29 31 32 33 34 34 34 32 23 218 214 213 212 211 209 207 204 200 197 195 194 192 190 190 193
360 3 6 8 10 11 13 14 15 16 16 18 19 20 22 23 25 26 28 29 31 32 33 34 35 35 33 25 221 216 214 213 212 211 209 207 203 201 199 197 196 194 194
358 0 3 5 7 8 10 12 14 14 15 16 17 18 19 20 22 23 25 26 28 30 31 32 34 35 35 33 28 227 219 217 215 214 213 212 210 207 204 203 201 200 199
358 359 360 1 3 5 7 9 10 11 12 13 14 15 16 17 18 20 21 23 25 27 28 30 31 32 34 36 34 29 240 222 220 218 216 216 214 213 211 208 207 206 205
358 358 358 357 358 -0 2 4 6 8 9 10 11 12 12 13 15 16 17 18 20 23 24 26 28 29 30 32 33 34 29 295 226 222 220 219 218 217 216 214 212 211 210
357 357 357 355 355 355 356 358 360 2 4 6 7 8 9 10 11 12 14 15 16 18 20 21 22 24 25 27 28 29 29 27 355 234 225 223 222 221 220 219 217 215 214
355 356 356 355 354 352 352 352 354 356 358 1 3 5 6 6 7 8 10 12 13 14 16 17 17 18 19 20 20 20 19 19 16 356 247 229 225 223 223 222 221 219 218